Skip Page Navigation
NASA JPL Caltech
NASA Logo - Jet Propulsion Laboratory + View the NASA Portal
+ Center for Near-Earth Object Studies
JPL Home Earth Solar System Stars & Galaxies Technology
JPL Solar System Dynamics
BODIES ORBITS EPHEMERIDES TOOLS PHYSICAL DATA DISCOVERY FAQ SITE MAP
JPL Small-Body Database Browser
Search: [ help ]  
524 Fidelio (A904 ED)
Classification: Main-belt Asteroid          SPK-ID: 2000524
Ephemeris | Orbit Diagram | Orbital Elements | Mission Design | Physical Parameters | Discovery Circumstances ]

[ show orbit diagram ]
Orbital Elements at Epoch 2459200.5 (2020-Dec-17.0) TDB
Reference: JPL 85 (heliocentric ecliptic J2000)
 Element Value Uncertainty (1-sigma)   Units 
e .1285313405204897 2.1661e-08  
a 2.634256334660235 6.9226e-09 au
q 2.295671836691763 5.5593e-08 au
i 8.22901181438468 9.7161e-07 deg
node 326.6827074318755 1.3329e-06 deg
peri 79.69786402294105 7.3215e-06 deg
M 204.6395983364193 9.8252e-06 deg
tp 2459874.443223909002
(2022-Oct-21.94322391)
4.4132e-05 TDB
period 1561.656368091864
4.28
6.1559e-06
1.685e-08
d
yr
n .2305244657887651 9.087e-10 deg/d
Q 2.972840832628707 7.8124e-09 au
  Orbit Determination Parameters
   # obs. used (total)      3308  
   data-arc span      42725 days (116.97 yr)  
   first obs. used      1904-03-15  
   last obs. used      2021-03-06  
   planetary ephem.      DE441  
   SB-pert. ephem.      SB441-N16  
   condition code      0  
   norm. resid. RMS      .41355  
   source      ORB  
   producer      Otto Matic  
   solution date      2021-May-03 18:31:42  

Additional Information
 Earth MOID = 1.32099 au 
 Jupiter MOID = 2.42913 au 
 T_jup = 3.372 
[ show covariance matrix ]

Ephemeris | Orbit Diagram | Orbital Elements | Mission Design | Physical Parameters | Discovery Circumstances ]

Physical Parameter Table
Parameter Symbol Value Units Sigma Reference Notes
absolute magnitude H 9.93   n/a E2021B10 IRAS observations used: 3
diameter diameter 65.527 km 0.957 urn:nasa:pds:neowise_diameters_albedos::2.0[mainbelt] (http://adsabs.harvard.edu/abs/2014ApJ...791..121M)  
rotation period rot_per 14.198 h n/a LCDB (Rev. 2020-October); Warner et al., 2009 Published Reference List:
[Behrend, R. (2005) Observatoire de Geneve web site, http://obswww.unige.ch/~behrend/page_cou.html]
[Koff, R.A. (2006) Minor Planet Bull. 33, 31-33.]
[Wang, X.-b.; Gu, S.-h.; Li, X.-j. (2010) Earth, Moon, and Planets 106, 97-104.]
[Marciniak, A.; Pilcher, F.; Oszkiewicz, D.; Santana-Ros, T.; et al. (2015) Planet. Space Sci. 118, 256-266.]
geometric albedo albedo 0.048   0.008 urn:nasa:pds:neowise_diameters_albedos::2.0[mainbelt] (http://adsabs.harvard.edu/abs/2014ApJ...791..121M)  
B-V BV 0.722   0.032 EAR-A-5-DDR-UBV-MEAN-VALUES-V1.2 #obs=3; phase (min.=7.92, mean=11.38, max.=13.29) deg.
U-B UB 0.316   0.051 EAR-A-5-DDR-UBV-MEAN-VALUES-V1.2 #obs=3; phase (min.=7.92, mean=11.38, max.=13.29) deg.
Tholen spectral type spec_T XC   n/a EAR-A-5-DDR-TAXONOMY-V4.0 used 2 color indices

524 Fidelio (A904 ED)          Discovered 1904-Mar-14 by Wolf, M. at Heidelberg
Reference: DISCOVERY.DBLast Updated: 2003-08-29

Alternate Designations
 A904 ED = 1953 UT 
Ephemeris | Orbit Diagram | Orbital Elements | Mission Design | Physical Parameters | Discovery Circumstances ]
ABOUT SSD CREDITS/AWARDS PRIVACY/COPYRIGHT GLOSSARY LINKS
FirstGov 2021-May-13 14:04 UT
(server date/time)  
NASA Home Page
Site Manager:   Ryan S. Park
Webmaster  Alan B. Chamberlin